sat.trackr.live / text

‹ back to catalog

STARLINK-32809

NORAD 62849 · 2025-019W

PAYLOAD ACTIVE UNKNOWN

§ Identity

Operator
Country
US
Launch date
2025-01-27
Launch site
AFETR
Launch vehicle
Mass (kg)
RCS (m²)

Purposes: comms

External: N2YO · Heavens-Above · Gunter

§ Orbital elements

Epoch: 2026-09-21T18:40:46.067808Z

Period
94.27 min
Inclination
42.9993°
Eccentricity
0.0001866
Mean motion
15.27586067 rev/d
Perigee alt
481.8 km
Apogee alt
484.3 km
Semi-major
6,861.2 km
B*
6.2396e-4
RAAN
61.2699°
Arg perigee
267.2178°
Mean anomaly
92.8460°
Rev number
9,224

§ Raw data

STARLINK-328091 62849U 25019W   26264.77831097  .00016951  00000+0  62396-3 0  99982 62849  42.9993  61.2699 0001866 267.2178  92.8460 15.27586067 92247

JSON: /api/v1/satellites/62849 · /tle

For live sub-satellite position, see the globe view (requires WebGL).

§ Visibility from observer

Set your observer location to see the next 7 days of passes ≥ 10°. The values pass through the URL so the page stays shareable.

No JS? Fill the form by hand. The geolocation button needs JavaScript.